Location: Natural Bridges National Monument
(37.6093°N, 109.9767°W)
Time: 08:38:28
(UTC-06:00)

Daily predictions for brighter satellites

Satellite Brightness Start Highest point End
(mag) Time Altitude Azimuth Time Altitude Azimuth Time Altitude Azimuth
SL-08 ROCKET BODY 4.5 20:51:48 10° S 20:57:41 59° E 21:03:30 10° NNE
Sich 1 Rocket 4.3 20:55:48 10° SSE 20:59:57 36° E 21:04:09 10° NNE
CENTAUR R/B 3.4 20:55:22 10° NW 21:03:18 74° WSW 21:11:36 10° SSE
Cosmos 1238 Rocket 4.5 21:02:51 10° NE 21:04:54 15° E 21:07:06 10° ESE
Coronas F rocket 1.9 21:04:13 10° SSW 21:06:49 57° W 21:09:26 10° N
SPOT 5 4.5 21:05:03 10° ESE 21:09:08 23° ENE 21:13:14 10° NNE
Cosmos 1825 3.5 21:06:49 10° SE 21:09:47 22° E 21:12:47 10° NE
COSMOS 2406 3.4 21:07:24 10° NNW 21:13:09 80° WSW 21:18:50 10° SSE
Cosmos 2084 3.2 21:09:31 10° SSW 21:13:19 60° ESE 21:17:06 10° NE
Cosmos 2278 Rocket 2.5 21:10:46 10° S 21:16:05 43° ESE 21:21:26 10° NE
Cosmos 1844 Rocket 2.8 21:10:37 10° SSW 21:16:17 87° WNW 21:21:58 10° NNE
Cosmos 676 Rocket 4.4 21:13:56 10° N 21:18:57 46° ENE 21:23:44 11° SE
Cosmos 1174 4.0 21:16:37 10° NNW 21:19:35 35° ENE 21:21:43 15° ESE
Meteor 2-10 Rocket 4.1 21:15:01 10° NNW 21:20:46 71° W 21:26:21 10° S
Cosmos 1844 3.7 21:15:50 10° SSW 21:21:34 77° ESE 21:27:23 10° NNE
Cosmos 2056 Rocket 4.4 21:17:02 10° SSW 21:22:04 54° WNW 21:27:05 10° N
FENGYUN 3A 4.3 21:17:08 10° S 21:22:27 58° W 21:27:45 10° NNW
PSLV R/B 4.4 21:19:48 10° W 21:22:55 33° SSW 21:25:34 13° SSE
COS B Rocket 4.1 21:19:28 10° NNE 21:22:55 29° E 21:25:27 14° SE
Cosmos 1908 Rocket 3.8 21:19:10 10° SSE 21:23:24 50° E 21:27:42 10° NNE
Cosmos 1733 Rocket 3.5 21:20:02 10° SSW 21:24:24 65° W 21:28:46 10° N
Cosmos 1378 Rocket 4.2 21:22:08 10° N 21:26:08 36° ENE 21:29:29 14° SE
Cosmos 2341 Rocket 4.3 21:22:50 10° SSE 21:28:46 45° E 21:34:40 10° NNE
SL-27 R/B 3.2 21:28:47 10° NNW 21:32:20 54° WSW 21:35:49 10° S
CZ-4 DEB 3.1 21:30:00 10° S 21:33:07 63° W 21:36:16 10° NNW
deb Chang Zheng 4 3.7 21:32:43 10° NNE 21:37:06 59° ESE 21:41:28 10° S
Cosmos 2082 Rocket 3.8 21:33:16 10° N 21:37:28 21° NE 21:40:49 13° E
GPS 2-05 Rocket1 3.0 21:34:22 10° WSW 21:38:03 59° S 21:40:32 18° E
Nimbus 7 Rocket 4.5 21:37:23 10° NNE 21:43:16 61° ESE 21:49:11 10° S
Intercosmos 25 4.0 21:47:33 24° ESE 21:48:30 28° E 21:51:18 10° NNE
Cosmos 1862 3.3 21:46:24 10° S 21:50:28 89° WNW 21:54:34 10° N
Cosmos 2297 4.0 21:47:06 10° S 21:52:26 44° ESE 21:57:50 10° NE
H-2A R/B 2.0 21:49:42 18° SSE 21:52:53 78° ENE 21:57:07 10° N
Envisat 2.9 21:49:14 15° SSE 21:53:33 83° ENE 21:58:38 10° N
Cosmos 2154 Rocket 4.0 21:47:19 10° S 21:53:33 87° W 21:59:47 10° N
COSMOS 2487 2.5 21:52:22 10° N 21:55:58 66° ENE 21:57:31 31° SE
SEDSat Delta rocket 3.9 21:52:50 10° SW 21:56:25 25° SSE 21:56:53 25° SSE
Cosmos 1606 3.0 21:53:01 10° NNW 21:56:57 70° W 22:00:04 15° S
EO 1 Delta rocket 4.1 21:52:19 10° N 21:58:15 89° E 22:03:07 10° S
APEX 3.4 21:58:14 10° S 22:01:52 63° ESE 22:06:41 10° NNE
Cosmos 1420 Rocket 3.9 22:00:09 10° SSW 22:05:24 80° ESE 22:10:38 10° NNE
CZ-4 SHROUD 3.5 22:05:13 43° ESE 22:05:36 47° ENE 22:08:36 10° N
PSLV R/B 3.2 22:05:41 48° E 22:05:58 51° ENE 22:08:50 10° N
H-2A R/B 4.3 22:01:26 10° WSW 22:06:19 45° S 22:36:39 10° ESE
Cosmos 489 Rocket 4.4 22:00:20 10° NNW 22:06:33 72° ENE 22:10:19 25° SSE
ERS-1 Rocket 3.9 22:03:12 10° S 22:08:02 47° W 22:12:54 10° NNW
MetOp-B 4.1 22:06:49 26° SSE 22:09:53 68° ENE 22:15:13 10° N
Meteor 1-27 Rocket 4.3 22:10:01 10° NNW 22:15:25 54° W 22:20:23 12° S
Okean 3 3.6 22:11:12 10° N 22:15:28 75° W 22:17:45 26° S
Cosmos 1140 Rocket 3.4 22:12:03 10° NNW 22:17:13 83° ENE 22:19:38 32° SSE
Cosmos 2366 rocket 4.3 22:16:58 28° SSE 22:19:58 49° E 22:26:02 10° NNE
H-2A R/B 3.2 22:22:52 25° E 22:24:11 28° ENE 22:28:40 10° N
Okean 2 Rocket 3.4 22:22:30 15° SSW 22:26:02 64° W 22:30:25 10° N
CZ-4B R/B 3.3 22:23:20 10° NNE 22:28:14 68° ESE 22:30:09 36° S
SL-08 RB Rocket 4.1 22:27:36 41° ESE 22:28:31 47° ENE 22:32:59 10° N
ARGOS 3.2 22:28:02 38° SE 22:29:56 62° ENE 22:35:13 10° N
USA 234 3.7 22:24:16 10° ENE 22:30:03 33° SE 22:30:12 33° SE
ISS -0.5 22:28:14 10° WNW 22:30:41 19° NNW 22:33:08 10° NNE
YAOGAN 6 2.5 22:30:30 61° SSW 22:30:59 76° W 22:34:31 10° NNW
Cosmos 1242 Rocket 2.7 22:27:52 10° NNW 22:31:32 69° W 22:32:16 52° SSW
OAO 3 Rocket 3.3 22:30:54 10° WSW 22:35:43 53° SSE 22:36:05 51° SSE
Terra 2.9 22:35:40 27° ENE 22:36:03 28° ENE 22:40:05 10° N
SPOT 1/Viking Rocket 3.5 22:37:46 43° SSE 22:39:34 88° E 22:44:49 10° NNW
Meteor 1-20 Rocket 4.4 22:43:06 46° ESE 22:43:55 50° E 22:49:15 10° NNE
SPOT 5 4.0 22:43:47 22° SSW 22:46:49 44° W 22:51:56 10° NNW
Cosmos 2218 Rocket 4.0 22:45:05 25° S 22:49:02 83° W 22:55:28 10° N
CARTOSAT-1 4.3 22:52:52 39° ENE 22:52:52 39° ENE 22:56:34 10° N
Okean 1 4.5 22:51:27 10° N 22:54:20 32° NE 22:54:20 32° NE
DELTA 2 DEB (DPAF) 4.2 22:56:30 62° ENE 22:56:30 62° ENE 23:00:54 10° N
Cosmos 1833 Rocket 2.6 22:52:35 10° NNW 22:58:12 72° ENE 22:59:10 59° SE
Meteor 1-25 Rocket 4.2 22:57:31 48° S 22:59:15 83° E 23:05:06 10° N
Cosmos 2278 Rocket 4.3 22:55:41 10° WSW 23:00:19 25° WNW 23:04:59 10° N
Lacrosse 5 3.5 23:04:10 22° ENE 23:04:10 22° ENE 23:06:01 10° NE
Meteor 2-19 Rocket 4.3 23:00:40 49° S 23:02:25 80° E 23:08:32 10° N
DNEPR-1 R/B 4.4 22:58:13 10° NW 23:03:02 43° WSW 23:03:31 42° SW
Cosmos 1727 Rocket 3.9 22:59:22 10° N 23:05:35 88° E 23:07:08 54° S
Cosmos 1536 Rocket 3.5 23:01:51 10° N 23:06:20 81° W 23:06:20 81° W
Meteor 2-8 Rocket 4.5 23:09:11 10° N 23:15:20 77° W 23:16:48 54° SSW
Cosmos 1812 3.7 23:11:48 10° N 23:14:33 45° N 23:14:33 45° N
ASTEX 1 3.8 23:13:38 10° NNE 23:17:44 50° ENE 23:17:44 50° ENE
USA 229 DEB 3.7 23:12:13 10° NW 23:19:21 82° WSW 23:20:58 57° SSE
USA 229 3.7 23:12:18 10° NW 23:19:27 83° WSW 23:21:04 58° SSE
Meteor 1-18 Rocket 4.5 23:14:05 10° NNW 23:19:58 69° W 23:21:09 55° SSW
Cosmos 2082 Rocket 2.5 23:16:22 10° NNW 23:21:55 56° WSW 23:22:40 51° SW
Cosmos 1331 Rocket 4.0 23:24:05 68° WSW 23:24:31 73° WNW 23:29:41 10° NNE
DMSP B5D2-2 4.0 23:23:33 10° N 23:28:47 83° WNW 23:28:54 82° WSW
IGS 5A 4.3 23:30:58 49° NNW 23:30:58 49° NNW 23:34:03 10° NNW
Lacrosse 5 rocket 4.0 23:38:52 11° NNE 23:38:52 11° NNE 23:38:58 10° NE
Cosmos 1821 Rocket 4.1 23:36:41 59° E 23:36:41 59° E 23:42:35 10° NNE
Meteor 1-13 Rocket 4.3 23:31:31 10° N 23:37:29 74° E 23:37:29 74° E
Cosmos 2285 Rocket 4.3 23:47:10 52° ENE 23:47:10 52° ENE 23:52:30 10° NNE
Cosmos 1934 Rocket 4.2 23:47:59 56° ENE 23:47:59 56° ENE 23:53:16 10° NNE
Meteor 1-11 Rocket 3.8 23:49:24 80° NNE 23:49:24 80° NNE 23:54:51 10° N
Meteor 2-21 4.3 23:51:23 87° ENE 23:51:23 87° ENE 23:57:34 10° N
Okean 1 Rocket 4.2 23:53:00 41° NW 23:53:00 41° NW 23:56:28 10° N
BREEZE-M TANK 3.8 23:49:39 10° WNW 23:56:11 41° N 23:56:11 41° N
